Location: Goudex
(43.3760°N, 0.9543°E)
Time: 07:22:54
(UTC+00:00)

SJ-7 - Pass Details

Date: 20 November 2019
Orbit: 555 x 603 km, 97.7° (Epoch: 08 December)

Event Time Altitude Azimuth Distance (km) Brightness Sun altitude
Rises 05:50:49 0° 12° (NNE) 2,833 7.9 -11.7°
Reaches altitude 10° 05:53:00 10° 13° (NNE) 1,920 7.1 -11.4°
Maximum altitude 05:57:10 88° 106° (ESE) 587 4.4 -10.6°
Drops below altitude 10° 06:01:14 10° 193° (SSW) 1,875 7.1 -9.9°
Sets 06:03:21 0° 194° (SSW) 2,760 8.0 -9.6°
